North Platte, NE

7:51 AM CDT on July 21, 2017 (GMT -0500)
North Platte Regional-Bird

Weather History for KLBF - August, 2013

Change the Weather History Date:

Thursday, August 22, 2013

  Actual Average Record
Temperature  
Mean Temperature 74 °F 71 °F  
Max Temperature 82 °F 86 °F 103 °F (1938)
Min Temperature 66 °F 57 °F 41 °F (1891)
Degree Days  
Heating Degree Days 0 1  
Month to date heating degree days 0 1  
Since 1 June heating degree days 60 57  
Since 1 July heating degree days 13 6  
Cooling Degree Days 9 7  
Month to date cooling degree days 164 182  
Year to date cooling degree days 693 641  
Since 1 June cooling degree days 645 613  
Growing Degree Days 24 (Base 50)    
Moisture  
Dew Point 64 °F    
Average Humidity 73    
Maximum Humidity 87    
Minimum Humidity 58    
Precipitation  
Precipitation 0.00 in 0.06 in 1.74 in (1893)
Month to date precipitation 3.33 1.80  
Year to date precipitation 14.18 15.73  
Snow  
Snow 0.00 in 0.00 in 0.00 in (2002)
Month to date snowfall 0.0 0.0  
Since 1 June snowfall T 0.0  
Since 1 July snowfall 0.0 0.0  
Snow Depth 0.00 in    
Sea Level Pressure  
Sea Level Pressure 30.02 in    
Wind  
Wind Speed 9 mph (ENE)    
Max Wind Speed 24 mph    
Max Gust Speed 31 mph    
Visibility 10 miles    
Events Thunderstorm    
T = Trace of Precipitation, MM = Missing Value Source: NWS Daily Summary

Daily Weather History Graph

Daily Weather History Graph

Search for Another Location

Airport or City:

Trip Planner

Search our weather history database for the weather conditions in past years. The results will help you decide how hot, cold, wet, or windy it might be!

Date:

Astronomy

Aug. 22, 2013 Rise Set
Actual Time 6:59 AM CDT 8:30 PM CDT
Civil Twilight 6:30 AM CDT 8:59 PM CDT
Nautical Twilight 5:55 AM CDT 9:34 PM CDT
Astronomical Twilight 5:18 AM CDT 10:11 PM CDT
Moon 9:13 PM CDT (8/22) 8:51 AM CDT (8/22)
Length of Visible Light 14h 29m
Length of Day
13h 31m
Waning Gibbous, 96% of the Moon is Illuminated
Aug 22
Waning Gibbous
Aug 28
Last Quarter
Sep 5
New
Sep 12
First Quarter
Sep 19
Full

Hourly Weather History & Observations

Time (CDT) Temp. Heat Index Dew Point Humidity Pressure Visibility Wind Dir Wind Speed Gust Speed Precip Events Conditions
12:53 AM 69.1 °F - 63.0 °F 81% 29.92 in 10.0 mi NNE 12.7 mph 19.6 mph N/A   Clear
1:53 AM 68.0 °F - 64.0 °F 87% 29.95 in 10.0 mi NNE 17.3 mph 23.0 mph N/A   Clear
2:16 AM 69.8 °F - 64.4 °F 83% 30.05 in 10.0 mi NE 20.7 mph 27.6 mph N/A Thunderstorm Clear
2:31 AM 69.8 °F - 64.4 °F 83% 30.04 in 10.0 mi ENE 19.6 mph 26.5 mph N/A   Clear
2:53 AM 70.0 °F - 63.0 °F 78% 29.94 in 10.0 mi East 19.6 mph 26.5 mph N/A   Clear
3:53 AM 69.1 °F - 62.1 °F 78% 29.95 in 10.0 mi East 13.8 mph - N/A   Clear
4:53 AM 66.9 °F - 62.1 °F 84% 29.95 in 10.0 mi ESE 12.7 mph 20.7 mph N/A   Clear
5:32 AM 66.2 °F - 62.6 °F 88% 30.07 in 10.0 mi East 11.5 mph - N/A   Mostly Cloudy
5:53 AM 66.9 °F - 63.0 °F 87% 29.99 in 10.0 mi ENE 12.7 mph - N/A   Overcast
6:53 AM 66.9 °F - 63.0 °F 87% 30.01 in 10.0 mi ENE 6.9 mph - N/A   Overcast
7:18 AM 66.2 °F - 62.6 °F 88% 30.09 in 10.0 mi ENE 8.1 mph - N/A   Mostly Cloudy
7:35 AM 66.2 °F - 62.6 °F 88% 30.09 in 10.0 mi ENE 8.1 mph - N/A   Scattered Clouds
7:53 AM 66.0 °F - 63.0 °F 90% 30.03 in 10.0 mi ENE 4.6 mph - N/A   Mostly Cloudy
8:53 AM 69.1 °F - 64.0 °F 84% 30.04 in 10.0 mi ENE 6.9 mph - N/A   Overcast
9:49 AM 71.6 °F - 64.4 °F 78% 30.11 in 10.0 mi NE 4.6 mph - N/A   Scattered Clouds
9:53 AM 73.0 °F - 64.0 °F 73% 30.02 in 10.0 mi Variable 3.5 mph - N/A   Scattered Clouds
10:11 AM 75.2 °F - 64.4 °F 69% 30.11 in 10.0 mi Calm Calm - N/A   Mostly Cloudy
10:53 AM 75.9 °F - 64.9 °F 69% 30.04 in 10.0 mi NNE 5.8 mph - N/A   Scattered Clouds
11:32 AM 77.0 °F - 64.4 °F 65% 30.12 in 10.0 mi NNE 5.8 mph - N/A   Mostly Cloudy
11:53 AM 78.1 °F - 64.0 °F 62% 30.04 in 10.0 mi Variable 6.9 mph - N/A   Mostly Cloudy
12:53 PM 79.0 °F - 64.0 °F 60% 30.04 in 10.0 mi NNE 9.2 mph - N/A   Mostly Cloudy
1:01 PM 78.8 °F - 64.4 °F 61% 30.11 in 10.0 mi NE 9.2 mph - N/A   Mostly Cloudy
1:53 PM 81.0 °F 82.7 °F 64.9 °F 58% 30.02 in 10.0 mi NE 11.5 mph - N/A   Mostly Cloudy
2:53 PM 80.1 °F 81.9 °F 64.9 °F 60% 30.03 in 10.0 mi NE 12.7 mph - N/A   Overcast
3:53 PM 80.1 °F 81.9 °F 64.9 °F 60% 30.02 in 10.0 mi East 13.8 mph - N/A   Mostly Cloudy
4:53 PM 82.0 °F 84.1 °F 66.0 °F 58% 30.01 in 10.0 mi ENE 10.4 mph - N/A   Overcast
5:53 PM 78.1 °F - 66.0 °F 66% 30.01 in 10.0 mi ENE 11.5 mph - N/A   Mostly Cloudy
6:53 PM 78.1 °F - 64.9 °F 64% 30.00 in 10.0 mi ENE 11.5 mph - N/A   Partly Cloudy
7:53 PM 73.9 °F - 64.9 °F 73% 30.01 in 10.0 mi East 6.9 mph - N/A   Partly Cloudy
8:53 PM 70.0 °F - 64.9 °F 84% 30.03 in 10.0 mi East 5.8 mph - N/A   Clear
9:53 PM 68.0 °F - 64.0 °F 87% 30.03 in 10.0 mi NE 4.6 mph - N/A   Clear
10:53 PM 68.0 °F - 64.0 °F 87% 30.04 in 9.0 mi NE 3.5 mph - N/A   Clear
11:53 PM 68.0 °F - 64.9 °F 90% 30.03 in 8.0 mi ENE 6.9 mph - N/A   Mostly Cloudy